Sedona, AZ

4:56 AM MST on February 11, 2016 (GMT -0700)
Sedona

Weather History for KSEZ - January, 2013

Change the Weather History Date:

Thursday, January 24, 2013

  Actual Average Record
Temperature  
Mean Temperature 52 °F -  
Max Temperature 55 °F 57 °F 60 °F (2015)
Min Temperature 48 °F 29 °F 32 °F (2012)
Degree Days  
Heating Degree Days 14    
Growing Degree Days 2 (Base 50)    
Moisture  
Dew Point 35 °F    
Average Humidity 58    
Maximum Humidity 93    
Minimum Humidity 31    
Precipitation  
Precipitation 0.00 in - - ()
Sea Level Pressure  
Sea Level Pressure 30.28 in    
Wind  
Wind Speed 6 mph (NE)    
Max Wind Speed 10 mph    
Max Gust Speed -    
Visibility 10 miles    
Events Rain    
Averages and records for this station are not official NWS values.
T = Trace of Precipitation, MM = Missing Value Source: NWS Daily Summary

Daily Weather History Graph

Daily Weather History Graph

Search for Another Location

Airport or City:

Trip Planner

Search our weather history database for the weather conditions in past years. The results will help you decide how hot, cold, wet, or windy it might be!

Date:

Astronomy

Jan. 24, 2013 Rise Set
Actual Time 7:30 AM MST 5:48 PM MST
Civil Twilight 7:03 AM MST 6:15 PM MST
Nautical Twilight 6:33 AM MST 6:46 PM MST
Astronomical Twilight 6:03 AM MST 7:16 PM MST
Moon 3:55 PM MST (1/24) 5:29 AM MST (1/24)
Length of Visible Light 11h 11m
Length of Day
10h 17m
Waxing Gibbous, 95% of the Moon is Illuminated
Jan 24
Waxing Gibbous
Jan 26
Full
Feb 3
Last Quarter
Feb 10
New
Feb 17
First Quarter

Hourly Weather History & Observations

Time (MST) Temp. Dew Point Humidity Pressure Visibility Wind Dir Wind Speed Gust Speed Precip Events Conditions
12:15 AM 55.4 °F 24.8 °F 31% 30.28 in 10.0 mi NNE 9.2 mph - N/A   Clear
12:35 AM 55.4 °F 24.8 °F 31% 30.28 in 10.0 mi NE 10.4 mph - N/A   Clear
12:55 AM 55.4 °F 24.8 °F 31% 30.28 in 10.0 mi NE 10.4 mph - N/A   Clear
1:15 AM 53.6 °F 24.8 °F 33% 30.28 in 10.0 mi NNE 9.2 mph - N/A   Clear
1:35 AM 53.6 °F 24.8 °F 33% 30.28 in 10.0 mi NE 9.2 mph - N/A   Clear
1:55 AM 55.4 °F 24.8 °F 31% 30.28 in 10.0 mi NE 8.1 mph - N/A   Clear
2:15 AM 55.4 °F 24.8 °F 31% 30.28 in 10.0 mi NE 10.4 mph - N/A   Clear
2:35 AM 53.6 °F 26.6 °F 35% 30.28 in 10.0 mi NE 6.9 mph - N/A   Clear
2:55 AM 53.6 °F 26.6 °F 35% 30.28 in 10.0 mi NE 5.8 mph - N/A   Clear
3:15 AM 53.6 °F 26.6 °F 35% 30.28 in 10.0 mi NNE 4.6 mph - N/A   Clear
3:35 AM 53.6 °F 26.6 °F 35% 30.28 in 10.0 mi NNE 8.1 mph - N/A   Clear
3:55 AM 53.6 °F 26.6 °F 35% 30.27 in 10.0 mi NE 6.9 mph - N/A   Clear
4:15 AM 53.6 °F 26.6 °F 35% 30.26 in 10.0 mi NNE 9.2 mph - N/A   Scattered Clouds
4:35 AM 53.6 °F 26.6 °F 35% 30.25 in 10.0 mi NE 8.1 mph - N/A   Clear
5:15 AM 53.6 °F 26.6 °F 35% 30.25 in 10.0 mi NNE 8.1 mph - N/A   Scattered Clouds
5:35 AM 53.6 °F 26.6 °F 35% 30.24 in 10.0 mi NE 9.2 mph - N/A   Clear
5:55 AM 53.6 °F 26.6 °F 35% 30.24 in 10.0 mi NE 6.9 mph - N/A   Mostly Cloudy
6:15 AM 53.6 °F 26.6 °F 35% 30.25 in 10.0 mi NNE 5.8 mph - N/A   Scattered Clouds
6:55 AM 53.6 °F 28.4 °F 38% 30.25 in 10.0 mi NE 6.9 mph - N/A   Overcast
7:15 AM 53.6 °F 28.4 °F 38% 30.26 in 10.0 mi Calm Calm - N/A   Mostly Cloudy
7:35 AM 53.6 °F 28.4 °F 38% 30.27 in 10.0 mi Calm Calm - N/A   Mostly Cloudy
7:55 AM 51.8 °F 28.4 °F 41% 30.27 in 10.0 mi NNE 5.8 mph - N/A   Overcast
8:15 AM 53.6 °F 28.4 °F 38% 30.27 in 10.0 mi Calm Calm - N/A   Overcast
8:35 AM 53.6 °F 28.4 °F 38% 30.28 in 10.0 mi Calm Calm - N/A   Overcast
8:55 AM 53.6 °F 28.4 °F 38% 30.29 in 10.0 mi Calm Calm - N/A   Overcast
9:15 AM 55.4 °F 28.4 °F 36% 30.30 in 10.0 mi SSE 3.5 mph - N/A   Overcast
9:35 AM 55.4 °F 28.4 °F 36% 30.30 in 10.0 mi Calm Calm - N/A   Overcast
9:55 AM 55.4 °F 26.6 °F 33% 30.30 in 10.0 mi South 3.5 mph - N/A   Overcast
10:15 AM 55.4 °F 26.6 °F 33% 30.31 in 10.0 mi Calm Calm - N/A   Overcast
10:35 AM 55.4 °F 28.4 °F 36% 30.32 in 10.0 mi Calm Calm - N/A Rain Light Rain
11:15 AM 53.6 °F 32.0 °F 44% 30.32 in 10.0 mi SW 3.5 mph - N/A Rain Light Rain
11:35 AM 53.6 °F 32.0 °F 44% 30.31 in 10.0 mi North 3.5 mph - N/A Rain Light Rain
11:55 AM 53.6 °F 35.6 °F 51% 30.30 in 10.0 mi NNW 3.5 mph - N/A   Light Drizzle
12:15 PM 53.6 °F 37.4 °F 54% 30.30 in 10.0 mi NNW 4.6 mph - N/A Rain Light Rain
12:35 PM 51.8 °F 37.4 °F 58% 30.31 in 10.0 mi Calm Calm - N/A Rain Rain
12:55 PM 51.8 °F 37.4 °F 58% 30.30 in 10.0 mi Calm Calm - N/A   Light Drizzle
1:15 PM 51.8 °F 41.0 °F 67% 30.28 in 10.0 mi East 3.5 mph - N/A   Overcast
1:35 PM 51.8 °F 41.0 °F 67% 30.25 in 10.0 mi NE 3.5 mph - N/A   Overcast
1:55 PM 51.8 °F 41.0 °F 67% 30.26 in 10.0 mi NNW 5.8 mph - N/A   Overcast
2:15 PM 51.8 °F 41.0 °F 67% 30.27 in 10.0 mi Calm Calm - N/A   Overcast
2:35 PM 51.8 °F 39.2 °F 62% 30.27 in 10.0 mi Calm Calm - N/A   Overcast
2:55 PM 51.8 °F 41.0 °F 67% 30.29 in 10.0 mi SSW 5.8 mph - N/A   Overcast
3:15 PM 51.8 °F 41.0 °F 67% 30.28 in 10.0 mi South 4.6 mph - N/A   Overcast
3:55 PM 50.0 °F 42.8 °F 76% 30.29 in 10.0 mi SSE 3.5 mph - N/A Rain Light Rain
4:15 PM 50.0 °F 41.0 °F 71% 30.28 in 10.0 mi SSE 8.1 mph - N/A Rain Light Rain
4:35 PM 48.2 °F 42.8 °F 82% 30.29 in 10.0 mi Calm Calm - N/A Rain Light Rain
4:55 PM 48.2 °F 42.8 °F 82% 30.29 in 10.0 mi Calm Calm - N/A   Overcast
5:15 PM 48.2 °F 42.8 °F 82% 30.29 in 10.0 mi Calm Calm - N/A   Overcast
5:35 PM 48.2 °F 42.8 °F 82% 30.29 in 10.0 mi NNE 4.6 mph - N/A   Overcast
5:55 PM 48.2 °F 42.8 °F 82% 30.28 in 10.0 mi NE 4.6 mph - N/A   Overcast
6:15 PM 48.2 °F 42.8 °F 82% 30.29 in 10.0 mi NE 8.1 mph - N/A   Overcast
6:35 PM 50.0 °F 42.8 °F 76% 30.29 in 10.0 mi NE 4.6 mph - N/A   Overcast
6:55 PM 50.0 °F 44.6 °F 82% 30.27 in 10.0 mi NE 4.6 mph - N/A   Overcast
7:15 PM 50.0 °F 44.6 °F 82% 30.28 in 10.0 mi NE 3.5 mph - N/A   Overcast
7:35 PM 50.0 °F 44.6 °F 82% 30.29 in 10.0 mi NE 4.6 mph - N/A   Overcast
7:55 PM 50.0 °F 44.6 °F 82% 30.30 in 10.0 mi NNE 5.8 mph - N/A   Overcast
8:15 PM 50.0 °F 44.6 °F 82% 30.30 in 10.0 mi NNE 4.6 mph - N/A   Overcast
8:35 PM 50.0 °F 44.6 °F 82% 30.30 in 10.0 mi Calm Calm - N/A   Light Drizzle
8:55 PM 48.2 °F 44.6 °F 87% 30.31 in 7.0 mi NNE 3.5 mph - N/A   Overcast
9:15 PM 48.2 °F 44.6 °F 87% 30.31 in 7.0 mi Calm Calm - N/A Rain Light Rain
9:35 PM 48.2 °F 46.4 °F 93% 30.31 in 10.0 mi Calm Calm - N/A   Overcast
9:55 PM 48.2 °F 46.4 °F 93% 30.30 in 10.0 mi ENE 3.5 mph - N/A   Overcast
10:15 PM 48.2 °F 46.4 °F 93% 30.30 in 10.0 mi East 4.6 mph - N/A   Overcast
10:35 PM 50.0 °F 46.4 °F 87% 30.30 in 10.0 mi ENE 4.6 mph - N/A   Overcast
10:55 PM 50.0 °F 46.4 °F 87% 30.30 in 10.0 mi Calm Calm - N/A   Overcast
11:15 PM 50.0 °F 46.4 °F 87% 30.29 in 10.0 mi NE 4.6 mph - N/A   Overcast
11:35 PM 50.0 °F 46.4 °F 87% 30.28 in 10.0 mi NE 6.9 mph - N/A   Overcast
11:55 PM 50.0 °F 44.6 °F 82% 30.29 in 10.0 mi NNE 5.8 mph - N/A   Overcast